Weather in Hulin

China     30°31′41″N   114°48′19″E
temp.,
°C
wind,
m/s
gust,
m/s
humid.,
%
clouds,
%
prec.,
mm/h
press.,
hPa
HPBL,
m
24 january, mon
mon2423:00+6nnw4493100 1.8 1023359
02:00+5nnw4492100 2.5 1022374
05:00+5nnw4591100 0.3 1022453
08:00+5nnw4390100 0.4 1023437
11:00+5nnw3290100 0.0 1024394
14:00+4nw4492100 0.2 1023474
17:00+5n3392100 0.1 1023442
20:00+5nnw3392100 0.1 1024351
25 january, tue
tue2523:00+5nnw3392100 0.1 1025296
02:00+5n3392100 0.2 1024354
05:00+5n3391100 0.1 1023311
08:00+6n3390100 0.1 1024324
11:00+6nnw2290100 0.6 1025300
14:00+6n3390100 1.4 1022346
17:00+7n2390100 0.6 1022306
20:00+7ne2390100 0.8 1023212
26 january, wed
wed2623:00+7ene1192100 0.4 1024142
02:00+7nne1294100 1.5 1023179
05:00+7ne2394100 0.9 1022223
08:00+7ene2393100 1.6 1023234
11:00+7ne2294100 2.4 1024227
14:00+8nne2393100 4.0 1022323
17:00+7ne2393100 1.6 1022309
20:00+7ne2391100 2.3 1024263
27 january, thu
thu2723:00+7nne2491100 1.3 1024386
02:00+6ne4592100 3.6 1024381
05:00+6ne3592100 2.6 1023370
08:00+6n4493100 5.8 1024355
11:00+6ne2389100 2.9 1026383
14:00+6n3492100 6.4 1023471
17:00+6nne3392100 2.5 1024583
20:00+5nne3492100 4.1 1026530
28 january, fri
fri2823:00+4ne4595100 2.2 1027515
02:00+4ne4497100 4.4 1026508
05:00+3ne3497100 3.4 1025439
08:00+2n1298100 7.7 1027300
11:00+3n1297100 1.4 1028378
14:00+3n2297100 1.8 1025481
17:00+4nnw2296100 0.3 1025597
20:00+4nne3396100 0.9 1026622